Location: Dessau
(51.7984°N, 12.2168°E)
Time: 12:14:56
(UTC+02:00)

ISS - Pass Details

Date: 07 January 2018
Orbit: 402 x 408 km, 51.6° (Epoch: 20 July)

Event Time Altitude Azimuth Distance (km) Brightness Sun altitude
Exits shadow 06:12:15 61° 269° (W) 478 -3.8 -18.2°
Maximum altitude 06:12:46 86° 184° (S) 425 -3.9 -18.1°
Drops below altitude 10° 06:16:09 10° 98° (E) 1,503 0.3 -17.6°
Enters shadow 07:09:07 -75° 291° (WNW) 12,709 3.7 -9.8°
